| time (UTC) | temp F | wind direction | speed knots | gust knots | rain 1hr in | rain 24hr in | rain mn in | humidity % | barometer mb |
| 20260504081519 | 51 | 319 | 2.6 | 13.0 | 0.00 | 0.00 | 0.00 | 58 | 1008.3 |
| 20260504050125 | 48 | 236 | 1.7 | 4.3 | 0.00 | 0.00 | 0.00 | 59 | 1010.5 |
| 20260504044552 | 49 | 257 | 0.9 | 3.5 | 0.00 | 0.00 | 0.00 | 59 | 1010.5 |
| 20260504043057 | 49 | 279 | 2.6 | 6.1 | 0.00 | 0.00 | 0.00 | 58 | 1010.5 |
| 20260504041548 | 49 | 273 | 0.9 | 7.8 | 0.00 | 0.00 | 0.00 | 57 | 1010.8 |
| 20260504040044 | 49 | 327 | 3.5 | 10.4 | 0.00 | 0.00 | 0.00 | 58 | 1011.0 |
| 20260504034547 | 50 | 284 | 0.9 | 5.2 | 0.00 | 0.00 | 0.00 | 57 | 1011.0 |
| 20260504033034 | 49 | 268 | 1.7 | 4.3 | 0.00 | 0.00 | 0.00 | 58 | 1010.9 |
| 20260504031530 | 50 | 245 | 1.7 | 6.1 | 0.00 | 0.00 | 0.00 | 58 | 1011.0 |
| 20260504030036 | 51 | 252 | 1.7 | 4.3 | 0.00 | 0.00 | 0.00 | 57 | 1011.1 |
| 20260504024520 | 51 | 253 | 2.6 | 5.2 | 0.00 | 0.00 | 0.00 | 55 | 1011.1 |
| 20260504023016 | 52 | 270 | 1.7 | 6.1 | 0.00 | 0.00 | 0.00 | 54 | 1011.2 |
| 20260504021512 | 53 | 260 | 1.7 | 4.3 | 0.00 | 0.00 | 0.00 | 53 | 1011.2 |
| 20260504020008 | 54 | 270 | 1.7 | 7.0 | 0.00 | 0.00 | 0.00 | 51 | 1011.2 |
| 20260504014505 | 54 | 254 | 1.7 | 6.1 | 0.00 | 0.00 | 0.00 | 50 | 1011.1 |
| 20260504013112 | 54 | 248 | 1.7 | 5.2 | 0.00 | 0.00 | 0.00 | 50 | 1011.0 |
| 20260504011557 | 55 | 275 | 1.7 | 4.3 | 0.00 | 0.00 | 0.00 | 49 | 1010.9 |
| 20260504010057 | 56 | 271 | 1.7 | 5.2 | 0.00 | 0.00 | 0.00 | 48 | 1010.9 |
| 20260504004546 | 56 | 294 | 1.7 | 7.0 | 0.00 | 0.00 | 0.00 | 46 | 1010.9 |
| 20260504003046 | 57 | 290 | 2.6 | 6.1 | 0.00 | 0.00 | 0.00 | 44 | 1010.8 |
| 20260504001547 | 57 | 321 | 5.2 | 13.0 | 0.00 | 0.00 | 0.00 | 43 | 1010.8 |
| 20260504000034 | 58 | 315 | 4.3 | 8.7 | 0.00 | 0.00 | 0.00 | 43 | 1010.8 |
| 20260503234532 | 59 | 270 | 2.6 | 8.7 | 0.00 | 0.00 | 0.00 | 42 | 1010.8 |
| 20260503233024 | 59 | 291 | 3.5 | 8.7 | 0.00 | 0.00 | 0.00 | 42 | 1010.9 |
| 20260503231521 | 59 | 348 | 6.1 | 13.0 | 0.00 | 0.00 | 0.00 | 41 | 1010.9 |
| 20260503230016 | 59 | 313 | 4.3 | 13.0 | 0.00 | 0.00 | 0.00 | 42 | 1010.9 |
| 20260503224511 | 60 | 304 | 5.2 | 10.4 | 0.00 | 0.00 | 0.00 | 41 | 1011.0 |
| 20260503223006 | 60 | 306 | 4.3 | 9.6 | 0.00 | 0.00 | 0.00 | 42 | 1011.0 |
| 20260503221502 | 60 | 294 | 4.3 | 8.7 | 0.00 | 0.00 | 0.00 | 44 | 1011.1 |
| 20260503220105 | 59 | 329 | 4.3 | 10.4 | 0.00 | 0.00 | 0.00 | 44 | 1011.2 |
| 20260503214557 | 59 | 302 | 3.5 | 9.6 | 0.00 | 0.00 | 0.00 | 43 | 1011.2 |
| 20260503213120 | 59 | 338 | 5.2 | 12.2 | 0.00 | 0.00 | 0.00 | 43 | 1011.0 |
| 20260503211612 | 59 | 319 | 5.2 | 12.2 | 0.00 | 0.00 | 0.00 | 43 | 1011.1 |
| 20260503210041 | 60 | 311 | 5.2 | 15.6 | 0.00 | 0.00 | 0.00 | 41 | 1010.9 |
| 20260503204552 | 59 | 355 | 3.5 | 11.3 | 0.00 | 0.00 | 0.00 | 40 | 1011.0 |
| 20260503203035 | 60 | 340 | 7.0 | 13.9 | 0.00 | 0.00 | 0.00 | 36 | 1011.3 |
| 20260503201527 | 59 | 315 | 5.2 | 17.4 | 0.00 | 0.00 | 0.00 | 35 | 1011.5 |
| 20260503200023 | 60 | 38 | 6.1 | 18.2 | 0.00 | 0.00 | 0.00 | 34 | 1011.7 |
| 20260503194523 | 61 | 299 | 7.0 | 15.6 | 0.00 | 0.00 | 0.00 | 34 | 1011.8 |
| 20260503193014 | 60 | 16 | 7.0 | 16.5 | 0.00 | 0.00 | 0.00 | 35 | 1012.1 |
| 20260503191510 | 61 | 11 | 6.1 | 15.6 | 0.00 | 0.00 | 0.00 | 35 | 1012.4 |
| 20260503190006 | 61 | 343 | 5.2 | 20.9 | 0.00 | 0.00 | 0.00 | 36 | 1012.5 |
| 20260503184501 | 60 | 313 | 7.8 | 15.6 | 0.00 | 0.00 | 0.00 | 35 | 1012.6 |
| 20260503183106 | 60 | 324 | 6.1 | 14.8 | 0.00 | 0.00 | 0.00 | 36 | 1012.7 |
| 20260503181555 | 61 | 360 | 5.2 | 14.8 | 0.00 | 0.00 | 0.00 | 37 | 1013.0 |
| 20260503180049 | 60 | 342 | 6.1 | 16.5 | 0.00 | 0.00 | 0.00 | 36 | 1013.0 |
| 20260503174558 | 58 | 22 | 6.1 | 12.2 | 0.00 | 0.00 | 0.00 | 37 | 1013.2 |
| 20260503173039 | 58 | 332 | 7.0 | 14.8 | 0.00 | 0.00 | 0.00 | 37 | 1013.3 |
| 20260503171536 | 58 | 309 | 3.5 | 16.5 | 0.00 | 0.00 | 0.00 | 39 | 1013.5 |